EHI
16 12 8 8 9 10 11 12 11 10 9 8 7 6 6 7 8 7 6 4 3 2 3 3 3 2 2 1 0 0 0 1 1 1 2 4 6 7 7 9 10 8 6
14 11 8 8 9 10 10 11 11 10 9 7 6 5 5 6 6 6 5 4 3 2 2 2 2 2 2 1 0 0 1 2 3 3 3 4 6 6 8 9 9 7 5
13 11 9 9 10 10 10 10 10 10 9 7 5 4 4 4 4 4 4 4 3 2 2 2 1 1 2 2 1 2 3 4 5 5 4 5 5 6 8 9 8 6 5
15 14 12 12 11 10 9 9 9 10 10 8 5 4 3 2 2 2 3 4 4 3 3 4 2 1 2 2 2 3 4 5 6 5 5 5 5 6 7 8 6 5 4
20 18 16 15 12 10 9 10 11 11 10 8 6 4 3 2 0 0 1 3 5 5 5 5 4 2 2 2 2 2 4 5 5 5 5 6 7 7 6 5 4 4 4
22 20 18 16 13 11 11 12 13 12 11 9 6 5 5 3 1 0 0 1 3 5 5 5 4 2 2 2 1 1 2 3 4 4 5 7 9 8 7 6 4 4 3
22 20 18 16 14 14 14 14 15 14 13 10 7 5 5 3 1 0 0 1 2 4 5 5 3 2 3 3 2 1 1 1 3 4 5 7 8 9 9 7 6 5 5
22 20 18 18 17 17 17 19 20 19 15 12 8 6 5 3 1 0 1 2 3 3 5 5 4 3 4 4 3 2 2 2 3 4 5 5 5 6 7 7 6 6 7
24 22 20 19 19 19 20 23 23 20 15 10 7 4 4 3 2 1 2 4 4 4 5 5 5 4 3 3 3 3 3 3 3 3 4 3 3 3 3 4 4 5 5
26 23 20 19 19 20 22 23 22 17 11 7 4 3 3 4 3 2 3 5 6 6 6 6 4 3 3 3 3 3 3 3 3 3 3 3 3 2 1 2 3 3 3
26 23 19 18 18 19 20 19 16 12 7 3 2 2 3 4 4 3 3 4 6 6 6 5 4 3 2 1 1 2 3 3 3 3 3 3 3 3 2 3 4 4 5
25 23 19 17 15 15 15 13 9 6 3 1 1 1 2 3 4 2 1 2 3 5 5 4 3 2 1 0 1 1 1 2 3 3 3 3 3 3 3 4 5 6 7
24 22 19 15 11 10 9 7 4 3 1 0 0 0 0 1 2 1 0 0 1 3 3 1 1 1 0 0 0 0 1 2 3 3 3 3 3 3 3 3 5 8 9
21 20 17 13 9 6 5 3 2 1 0 0 0 0 0 0 1 1 0 0 0 1 1 0 0 0 0 0 0 0 1 3 3 3 3 3 3 3 3 4 5 7 8
17 16 14 10 6 4 2 1 1 0 0 0 0 0 0 0 0 0 0 0 0 0 0 0 0 0 0 0 0 0 2 3 3 3 3 4 4 4 4 5 6 7 7
12 11 8 6 4 3 2 0 0 0 0 0 0 0 0 0 0 0 0 0 0 0 0 0 0 0 0 0 0 0 1 2 2 3 3 4 4 4 4 5 6 6 6
8 7 5 4 3 3 2 1 0 0 0 0 0 0 0 0 0 0 0 0 0 0 0 0 0 0 0 0 0 0 0 1 1 1 2 2 2 3 4 4 5 5 6
6 5 5 5 4 3 2 1 0 0 0 0 0 0 0 0 0 0 0 0 0 0 0 0 0 0 0 0 0 0 0 0 0 0 1 1 0 1 1 2 2 2 4
6 5 5 5 4 3 3 1 0 0 0 0 0 0 0 0 0 0 0 0 0 0 0 0 0 0 0 0 0 0 0 0 0 0 0 0 0 0 0 0 0 0 1
6 5 5 4 3 3 3 2 0 0 0 0 0 0 0 0 0 0 0 0 0 0 0 0 0 0 0 0 0 0 0 0 0 0 0 0 0 0 0 0 0 0 0
5 4 4 3 3 3 3 1 0 0 0 0 0 0 0 0 0 0 0 0 0 0 0 0 0 0 0 0 0 0 0 0 0 0 0 0 0 0 0 0 0 0 0
5 5 4 3 3 3 2 1 0 0 0 0 0 0 0 0 0 0 0 0 0 0 0 0 0 0 0 0 0 0 0 0 0 0 0 0 0 0 0 0 0 0 0
6 5 4 3 3 1 1 0 0 0 0 0 0 0 0 0 0 0 0 0 0 0 0 0 0 0 0 0 0 0 0 0 0 0 0 0 0 0 0 0 0 0 0
6 4 3 3 2 1 0 0 0 0 0 0 0 0 0 0 0 0 0 0 0 0 0 0 0 0 0 0 0 0 0 0 0 0 0 0 0 0 0 0 0 0 0
5 4 3 2 1 0 0 0 0 0 0 0 0 0 0 0 0 0 0 0 0 0 0 0 0 0 0 0 0 0 1 0 0 0 0 0 0 0 0 0 0 0 0
4 4 3 1 0 0 0 0 0 0 0 0 0 0 0 0 0 0 0 0 0 0 0 0 0 0 0 0 0 0 1 0 0 0 0 0 0 0 0 0 0 0 0
Wind_Speed
5 4 3 3 3 2 2 1 1 1 1 1 1 1 1 1 1 1 2 1 2 2 2 1 2 3 2 2 2 2 2 3 3 2 1 0 1 2 1 2 3 3 3
5 5 4 3 2 2 1 1 1 1 0 1 1 1 1 1 1 2 3 2 2 2 2 2 2 2 2 3 2 2 2 3 3 3 2 1 2 3 2 3 2 2 2
6 5 4 3 3 2 1 1 1 0 1 1 1 1 1 2 2 2 2 2 2 2 2 2 2 2 2 2 3 3 2 2 2 3 3 1 2 2 3 3 3 2 3
5 5 4 3 3 2 2 1 1 0 1 1 1 1 1 2 2 2 2 2 2 2 2 2 2 3 3 3 3 3 3 3 3 4 3 3 2 2 3 3 3 3 3
5 4 4 4 3 3 2 2 1 1 1 1 1 1 2 2 1 2 2 2 2 2 2 2 2 2 3 3 4 3 3 4 4 3 3 3 2 2 3 3 3 2 3
4 4 4 3 3 3 2 2 1 1 1 1 2 2 2 1 3 3 3 2 2 3 3 3 2 2 0 1 2 3 4 5 5 4 4 3 3 3 3 4 3 3 3
4 4 4 3 3 3 3 2 2 2 1 1 1 1 1 1 2 1 3 3 3 2 3 3 3 1 1 2 2 3 4 4 5 6 5 5 4 3 4 5 3 4 3
4 4 3 3 3 3 3 2 2 2 1 1 1 1 1 1 2 2 4 4 3 3 3 3 3 2 2 3 4 3 3 3 4 4 4 5 4 3 4 5 5 5 6
3 3 3 3 3 3 3 2 1 1 1 1 0 1 1 1 2 2 4 3 2 3 3 2 3 2 2 4 4 4 4 4 3 3 3 3 4 5 5 5 5 5 4
2 2 2 2 2 2 1 1 1 1 1 1 0 1 1 1 2 2 5 3 2 3 3 3 2 1 1 3 4 4 5 5 4 4 5 7 8 7 8 7 6 5 4
2 2 2 2 2 2 1 1 1 1 1 0 0 0 0 1 1 2 4 3 3 4 3 3 0 2 1 4 5 5 5 6 6 6 5 5 5 5 6 6 5 6 5
2 2 2 2 1 2 2 1 1 1 2 1 1 1 1 1 1 2 0 2 5 4 4 3 1 0 3 6 5 4 5 7 7 6 5 5 5 5 4 5 5 6 6
3 3 2 1 1 2 2 2 2 2 2 1 1 1 1 1 2 4 3 3 5 4 3 3 2 4 5 6 6 6 7 6 5 6 5 5 5 4 5 4 5 6 8
3 2 2 2 1 1 1 2 1 1 1 1 1 2 2 1 2 2 1 2 3 3 3 2 5 7 7 5 5 6 6 5 5 6 6 5 5 5 5 5 5 5 6
2 2 2 2 2 1 1 0 0 1 1 2 2 2 2 2 3 4 4 3 3 3 4 4 3 3 3 3 4 4 4 4 4 5 5 5 5 5 4 4 5 5 6
2 2 2 1 1 1 1 2 2 1 2 1 1 3 2 2 2 2 3 3 4 3 4 3 3 3 4 4 4 4 4 4 4 5 5 5 5 5 5 5 5 6 6
2 2 2 1 1 1 1 1 1 1 3 3 3 3 3 2 2 3 3 4 4 4 4 3 3 3 4 4 5 5 5 5 5 5 5 5 5 6 5 5 5 6 7
2 1 2 1 1 1 2 2 1 1 1 1 3 5 5 4 4 4 4 4 3 3 3 3 3 4 4 4 5 5 5 5 5 5 5 5 5 6 6 6 6 6 6
2 1 1 1 2 2 2 2 2 2 2 2 2 2 5 5 6 5 5 3 3 3 3 3 4 4 4 4 5 5 5 5 5 5 5 6 6 6 6 6 6 6 7
1 0 2 2 2 2 2 2 2 2 2 2 3 3 2 3 3 2 3 3 3 3 3 4 4 4 5 5 5 5 5 5 5 5 5 5 5 6 6 7 7 6 6
2 2 3 4 2 2 3 3 3 3 3 3 3 2 3 4 4 4 3 3 3 3 3 4 4 4 4 5 5 6 6 5 5 5 6 6 6 6 6 6 6 6 5
2 2 2 2 2 2 3 3 3 3 4 4 3 2 3 5 4 3 3 3 4 3 3 4 4 4 4 5 5 6 6 6 6 6 6 6 6 6 6 6 6 5 5
3 2 2 2 2 2 3 3 4 4 4 4 4 3 3 4 4 4 4 4 4 4 4 4 4 4 4 4 5 5 6 6 6 6 7 6 6 6 6 6 6 6 5
3 3 3 2 2 3 3 3 3 3 4 3 4 3 3 3 4 4 5 5 5 4 4 4 5 6 7 6 5 5 4 5 6 6 8 7 7 6 6 6 6 6 5
3 3 3 2 2 3 3 3 3 3 4 4 4 4 4 4 4 5 5 5 5 5 6 5 5 5 6 7 7 5 4 4 5 7 7 6 7 7 6 6 6 6 5
3 3 3 2 3 3 3 4 4 4 4 4 4 4 4 5 5 5 5 5 5 5 5 5 6 7 7 7 7 5 3 4 5 6 7 6 7 6 6 5 7 6 5
Wind_Direction
151 149 145 145 138 138 136 126 108 65 31 353 353 341 327 331 319 290 297 293 294 309 304 292 289 307 298 290 291 290 285 278 264 270 256 108 230 271 248 244 224 203 153
153 155 155 149 151 162 145 122 118 105 322 343 324 323 306 327 318 302 302 313 302 301 311 319 304 302 306 296 302 292 291 290 265 261 253 236 239 242 245 250 241 216 188
154 156 156 161 162 167 143 126 137 151 295 324 317 309 317 321 314 315 312 314 312 310 313 306 301 303 296 303 291 283 276 261 255 254 253 245 243 240 242 239 231 234 231
157 159 162 167 171 167 161 168 179 217 261 303 302 305 303 302 308 318 311 311 313 314 307 296 297 293 290 286 272 270 271 271 249 247 250 241 229 218 240 244 230 213 243
162 162 160 164 167 175 181 189 193 223 243 272 284 289 287 272 333 331 298 289 303 303 299 291 295 328 351 321 308 304 287 270 262 254 251 248 243 244 255 258 256 238 219
169 167 162 169 177 186 190 192 200 223 266 276 282 288 298 348 42 2 312 296 294 290 294 293 269 232 221 280 315 314 303 283 283 283 272 274 276 270 283 277 272 264 249
174 175 172 177 181 190 200 190 203 225 249 273 289 308 327 22 43 2 310 288 284 291 291 290 287 305 276 279 257 245 257 267 274 279 281 285 281 281 283 272 274 278 283
177 180 176 186 187 192 204 208 214 222 220 252 289 293 303 43 42 339 304 270 280 283 281 280 281 287 307 304 280 273 263 253 253 254 271 280 289 298 281 274 268 250 242
175 178 184 195 195 200 206 207 208 221 222 221 251 277 278 34 37 334 308 273 272 276 273 276 281 275 349 313 276 269 267 256 229 234 262 272 295 287 281 268 260 255 251
172 175 176 184 193 198 197 213 203 214 207 219 142 312 336 352 40 354 312 281 284 279 265 244 185 250 317 297 273 268 267 272 280 251 230 230 238 233 228 251 264 263 264
142 150 170 163 166 165 166 174 188 205 180 198 154 210 260 345 85 57 345 311 310 297 290 281 78 103 269 279 277 271 276 280 270 261 250 240 238 238 232 233 251 263 266
139 133 132 150 170 139 147 158 181 202 196 199 207 232 189 169 74 97 20 303 309 297 294 298 352 20 266 266 264 274 275 268 261 258 256 253 251 250 245 243 243 255 262
142 138 141 139 150 157 172 171 185 210 242 245 259 279 309 322 156 167 194 238 271 279 302 329 292 261 257 243 230 239 248 253 261 262 261 262 262 264 260 244 237 241 244
150 159 162 157 149 140 201 197 201 221 247 265 289 302 311 310 339 344 305 255 243 256 284 264 229 236 245 255 240 235 247 261 273 274 276 273 270 261 254 254 251 247 246
169 189 189 173 142 150 136 17 208 76 6 298 311 320 320 326 12 359 325 326 320 329 309 283 280 271 264 265 266 267 269 264 263 273 275 271 268 267 266 263 258 257 257
194 206 206 188 165 178 151 114 73 110 119 177 278 296 319 344 330 323 299 292 295 294 279 277 292 294 295 290 286 280 271 272 271 267 270 273 271 269 264 257 256 257 260
228 221 218 209 188 201 203 199 164 140 176 191 208 225 246 273 274 271 269 268 261 248 255 281 295 298 297 294 290 287 286 282 277 273 271 270 272 271 269 264 260 259 258
230 204 244 234 233 239 246 254 253 264 267 238 196 200 212 224 235 244 246 253 253 236 272 294 296 293 290 292 296 296 294 287 277 274 275 273 270 270 269 264 259 259 262
229 220 235 259 253 249 249 254 261 266 275 284 271 196 198 212 214 222 222 255 292 294 298 300 300 298 296 295 296 296 295 293 292 286 281 281 276 271 270 271 270 267 265
230 328 273 261 254 257 258 263 269 273 281 295 297 304 286 268 276 255 239 273 288 294 300 300 302 304 302 299 296 292 291 290 292 286 285 282 277 272 270 269 270 267 263
243 197 221 251 255 267 270 269 277 279 281 281 286 312 304 284 280 280 282 283 287 292 297 299 297 294 293 295 295 291 289 288 290 293 292 288 284 279 275 272 270 269 268
266 257 250 262 271 272 283 283 282 279 279 282 285 274 239 268 279 280 288 295 295 294 294 295 295 296 301 302 302 301 297 295 293 291 291 290 288 286 282 277 276 276 270
265 269 267 267 269 267 264 273 282 286 293 298 299 296 290 295 298 296 294 295 297 295 293 292 294 298 303 300 298 295 293 295 296 296 291 287 286 284 284 282 279 277 274
255 259 262 263 263 263 268 279 287 294 300 301 296 294 289 287 289 290 287 290 292 291 291 291 292 296 300 299 294 293 299 309 305 292 290 288 286 283 281 279 277 274 271
256 263 269 274 275 276 280 283 286 290 292 290 288 289 289 290 288 288 288 289 288 288 292 291 289 290 296 298 298 302 327 321 302 301 289 282 283 283 280 277 275 274 267
271 271 271 273 273 278 279 281 286 291 290 291 293 297 298 296 294 292 292 291 291 290 290 288 292 294 297 293 302 314 301 289 285 283 281 280 279 277 279 279 279 275 269